TimeCDT,TemperatureF,Dew PointF,Humidity,Sea Level PressureIn,VisibilityMPH,Wind Direction,Wind SpeedMPH,Gust SpeedMPH,PrecipitationIn,Events,Conditions,WindDirDegrees,DateUTC
12:54 AM,72.0,59.0,64,30.14,10.0,ESE,5.8,-,N/A,,Clear,120,2013-09-06 05:54:00
1:54 AM,71.1,60.1,68,30.13,10.0,ESE,5.8,-,N/A,,Clear,120,2013-09-06 06:54:00
2:54 AM,69.1,60.1,73,30.13,10.0,SE,6.9,-,N/A,,Clear,140,2013-09-06 07:54:00
3:54 AM,68.0,60.1,76,30.13,10.0,SE,5.8,-,N/A,,Clear,140,2013-09-06 08:54:00
4:54 AM,68.0,61.0,78,30.13,10.0,ESE,6.9,-,N/A,,Clear,120,2013-09-06 09:54:00
5:54 AM,66.0,60.1,81,30.14,10.0,ESE,5.8,-,N/A,,Clear,120,2013-09-06 10:54:00
6:54 AM,64.0,60.1,87,30.15,10.0,ESE,4.6,-,N/A,,Clear,120,2013-09-06 11:54:00
7:54 AM,64.9,62.1,90,30.15,10.0,SSE,5.8,-,N/A,,Clear,150,2013-09-06 12:54:00
8:54 AM,72.0,64.0,76,30.15,10.0,South,4.6,-,N/A,,Clear,180,2013-09-06 13:54:00
9:54 AM,80.1,64.0,58,30.16,10.0,West,4.6,-,N/A,,Clear,260,2013-09-06 14:54:00
10:54 AM,82.0,62.1,51,30.16,10.0,ESE,4.6,-,N/A,,Clear,120,2013-09-06 15:54:00
11:54 AM,84.9,60.1,43,30.14,10.0,Variable,6.9,-,N/A,,Clear,0,2013-09-06 16:54:00
12:54 PM,86.0,57.9,38,30.12,10.0,SE,11.5,-,N/A,,Clear,140,2013-09-06 17:54:00
1:54 PM,90.0,55.0,30,30.10,10.0,SSW,11.5,-,N/A,,Clear,210,2013-09-06 18:54:00
2:54 PM,89.1,52.0,28,30.07,10.0,SE,6.9,-,N/A,,Clear,140,2013-09-06 19:54:00
3:54 PM,88.0,54.0,31,30.05,10.0,South,9.2,-,N/A,,Clear,170,2013-09-06 20:54:00
4:54 PM,89.1,51.1,27,30.03,10.0,South,9.2,-,N/A,,Clear,190,2013-09-06 21:54:00
5:54 PM,86.0,50.0,29,30.04,10.0,South,6.9,-,N/A,,Clear,190,2013-09-06 22:54:00
6:54 PM,81.0,55.0,41,30.03,10.0,South,8.1,-,N/A,,Clear,180,2013-09-06 23:54:00
7:54 PM,75.9,55.0,48,30.02,10.0,South,5.8,-,N/A,,Clear,170,2013-09-07 00:54:00
8:54 PM,72.0,55.9,57,30.04,10.0,South,6.9,-,N/A,,Clear,180,2013-09-07 01:54:00
9:54 PM,72.0,57.0,59,30.03,10.0,South,4.6,-,N/A,,Clear,170,2013-09-07 02:54:00
10:54 PM,72.0,57.9,61,30.03,10.0,South,4.6,-,N/A,,Clear,170,2013-09-07 03:54:00
11:54 PM,69.1,59.0,70,30.02,10.0,SSE,4.6,-,N/A,,Clear,160,2013-09-07 04:54:00